Regional Weather Roundup
Issued by NWS

Home | Current Version | Previous Version | Text Only | Print | Product List | Glossary On
Versions: 1 2 3 4 5 6 7 8 9 10 11 12 13 14 15 16 17 18 19 20 21 22 23 24 25 26 27 28 29 30 31 32 33 34 35 36 37 38 39 40 41 42 43 44 45 46 47 48 49 50
000
ASUS46 KLOX 050513
RWRCA

SOUTHERN CALIFORNIA WEATHER ROUNDUP
NATIONAL WEATHER SERVICE OXNARD CALIFORNIA
1000 PM PDT TUE AUG 04 2015

NOTE: "FAIR" INDICATES FEW OR NO CLOUDS BELOW 12,000 FEET WITH NO
SIGNIFICANT WEATHER AND/OR OBSTRUCTIONS TO VISIBILITY.

  -  STATIONS PRECEEDED BY AN ASTERISK (*) ARE NOT NWS OR FAA
     STATIONS AND ARE NOT SUBJECT TO NWS AND FAA QUALITY CONTROL.

CAZ041-042-087-050600-
LA AND ORANGE COUNTY COASTAL AREAS


CITY           SKY/WX    TMP DP  RH WIND       PRES   REMARKS
L.A. DOWNTOWN  CLEAR     73  60  63 E3        29.90R
L.A. AIRPORT   CLEAR     71  64  78 W8        29.91R
LONG BEACH     CLEAR     74  58  57 W9        29.91R

CITY           SKY/WX    TMP DP  RH WIND       PRES   REMARKS
AVALON           N/A     68 N/A N/A S2          N/A
FULLERTON      CLEAR     74  57  55 CALM      29.90R
*GETTY CENTER    N/A     73  54  49 S2          N/A
HAWTHORNE      CLEAR     74  63  68 VRB3      29.90R
*LOS ALAMITOS  CLEAR     72  62  70 SE3       29.91R
*REDONDO BEACH   N/A     70  61  72 W8        29.91R
SANTA ANA      CLEAR     76  56  49 CALM      29.91R
STA MONICA APT CLEAR     72  61  68 CALM      29.91R
*UCLA            N/A     72  59  64 CALM      29.89R

$$

CAZ547-548-048-050600-
LA COUNTY VALLEYS AND INLAND EMPIRE


CITY           SKY/WX    TMP DP  RH WIND       PRES   REMARKS
BURBANK        CLEAR     82  54  37 W6        29.92R
VAN NUYS       CLEAR     79  50  36 VRB6      29.92R

CITY           SKY/WX    TMP DP  RH WIND       PRES   REMARKS
CORONA AIRPORT CLEAR     75  55  49 NW6       29.93R
*CHATSWORTH      N/A     76  55  47 CALM      29.91R
CHINO          CLEAR     77  54  44 W8        29.94R
MARCH AFB      CLEAR     77  52  40 NW1       29.96R
*NORTHRIDGE      N/A     77  48  36 CALM        N/A
ONTARIO        CLEAR     78  53  41 W7        29.94R
*PASADENA        N/A     75  61  60 E1          N/A
RIVERSIDE      CLEAR     79  54  41 W5        29.93R
SAN BERNARDINO NOT AVBL
*WHITEMAN AP   NOT AVBL
*WOODLAND HILL   N/A     75  48  38 SW3         N/A

$$

CAZ054-055-050600-
LA AND SAN BERNARDINO COUNTY MOUNTAINS


CITY           SKY/WX    TMP DP  RH WIND       PRES   REMARKS
*BIG BEAR AIRP CLEAR     59  36  41 CALM      30.31S
SANDBERG       CLEAR     69  51  52 NW12      30.14R

$$

CAZ028-029-059-060-099-050600-
ANTELOPE VALLEY AND SURROUNDING AREAS


CITY           SKY/WX    TMP DP  RH WIND       PRES   REMARKS
LANCASTER      CLEAR     81  45  28 W17       29.99R
PALMDALE       CLEAR     81  43  26 SW9       29.99R

CITY           SKY/WX    TMP DP  RH WIND       PRES   REMARKS
29 PALMS       CLEAR     88  41  19 N8        29.97R
BARSTOW/DAGGET CLEAR     89  39  17 W15       29.92R
BISHOP         CLEAR     78  36  21 N9        29.95S
CHINA LAKE     PTCLDY    86  36  16 S16       29.90R
EDWARDS AFB    PTCLDY    81  42  25 SW10      29.96R
MOJAVE         CLEAR     81  37  21 W10G18    30.00R
NEEDLES        CLEAR     99  28   8 SW10      29.77R HX  92
VICTORVILLE    CLEAR     79  46  31 CALM      30.01R

$$

CAZ039-040-050600-
VENTURA AND SANTA BARBARA COUNTY COAST


CITY           SKY/WX    TMP DP  RH WIND       PRES   REMARKS
CAMARILLO      CLEAR     69  58  67 W5        29.92S
OXNARD AIRPORT CLEAR     68  59  73 W13       29.92R
*POINT MUGU    PTCLDY    69  59  70 VRB6      29.93R
SBA APT/GOLETA PTCLDY    72  59  63 NW5       29.89R
*SANTA BARBARA   N/A     73  61  65 CALM      29.97R
*VENTURA         N/A     69  59  72 CALM      29.53S

$$

CAZ044-045-050600-
VENTURA COUNTY VALLEYS


CITY           SKY/WX    TMP DP  RH WIND       PRES   REMARKS
*SIMI VALLEY     N/A     70  59  68 CALM      29.87R
*OJAI            N/A     70  58  66 CALM      29.85R
*FILLMORE        N/A     70  59  68 SW6       29.83S

$$

CAZ053-050600-
VENTURA COUNTY MOUNTAINS


CITY           SKY/WX    TMP DP  RH WIND       PRES   REMARKS

$$

CAZ034-035-036-050600-
CENTRAL COAST AND SANTA YNEZ VALLEY


CITY           SKY/WX    TMP DP  RH WIND       PRES   REMARKS
SAN LUIS OBISP MOCLDY    63  58  83 NW8       30.01S
SANTA MARIA    MOCLDY    63  59  87 NW5       30.01S

CITY           SKY/WX    TMP DP  RH WIND       PRES   REMARKS
*LOMPOC        MOCLDY    63  55  77 W7        30.02R
*PISMO BEACH     N/A     66  58  77 W1        30.02R
*SANTA YNEZ    FAIR      63  52  67 CALM      30.01R

$$

CAZ037-038-051-050600-
SAN LUIS OBISPO COUNTY INTERIOR AND CUYAMA VALLEY


CITY           SKY/WX    TMP DP  RH WIND       PRES   REMARKS
*CUYAMA          N/A     67  51  54 W2        29.91R
PASO ROBLES    MOCLDY    65  54  67 SW6       30.00R

$$

CAZ032-033-061-050600-
SOUTHERN DESERTS


CITY           SKY/WX    TMP DP  RH WIND       PRES   REMARKS
BLYTHE         CLEAR    100  37  11 SW7       29.75R HX  95
IMPERIAL       CLEAR     98  46  17 SW9       29.74R HX  94
PALM SPRINGS   CLEAR    101  41  12 NW15      29.79R HX  96
THERMAL        CLEAR     99  41  13 N14G24    29.72R HX  94

$$

ELSEWHERE ACROSS THE WESTERN UNITED STATES AND MEXICO


CITY           SKY/WX    TMP DP  RH WIND       PRES   REMARKS
DENVER, CO     CLEAR     64  48  56 E8        30.16R
GRAND CANYON,  CLEAR     57  31  37 CALM      30.28R
HONOLULU, HI   PTCLDY    84  72  65 E12G20    29.85R
KAHULUI, MAUI  PTCLDY    81  70  69 NE18      29.84R
LAKE TAHOE, CA MOCLDY    59  45  59 CALM      30.19R
LAS VEGAS, NV  PTCLDY    95  31  10 SW7       29.82R
MAMMOTH LAKES, NOT AVBL
MEXICO CITY, M CLOUDY    64  54  68 N6        30.37R
PHOENIX, AZ    CLEAR     99  49  18 SW5       29.81R HX  96
PORTLAND, OR   PTCLDY    66  52  60 NW9       30.02R
RENO, NV       MOCLDY    73  42  32 N5        30.07R
SALT LAKE CITY PTCLDY    79  48  33 S9        29.95F
SAN DIEGO, CA  CLEAR     74  63  68 CALM      29.93R
SAN FRANCISCO, MOCLDY    65  57  75 W7        30.02R
SAN JOSE, CA   MOCLDY    66  54  65 NW10      30.01R
SEATTLE, WA    PTCLDY    63  52  67 SW3       30.00R
TIJUANA, MEX   CLEAR     70  61  73 W5        29.94R

$$

STATION/POSITION TIME  TEMP    WIND        PRES    VSBY  WAVE
                       AIR SEA DIR/SP/G                  HT/PER
                 (UTC) (F)     (DEG/KT/KT) (MB)    (MI)  (FT/S)
POINT ARGUELLO B NOT AVBL
WEST SANTA BARBA 0450   62 62  320/ 17/ 21 1013.8F         3/15
POINT CONCEPTION NOT AVBL
EAST SANTA BARBA 0400   67 65  270/ 17/ 23 1012.5S
SANTA MONICA BAY 0450   70 72  290/ 10/ 14 1012.5R         6/ 6



USA.gov is the U.S. government's official web portal to all federal, state and local government web resources and services.